Regional Weather Roundup
Issued by NWS Upton, NY

Current Version | Previous Version | Graphics & Text | Print | Product List | Glossary Off
Versions: 1 2 3 4 5 6 7 8 9 10 11 12 13 14 15 16 17 18 19 20 21 22 23 24 25 26 27 28 29 30 31 32 33 34 35 36 37 38 39 40 41 42 43 44 45 46 47 48 49 50

000
ASUS41 KOKX 190607
RWROKX

REGIONAL WEATHER ROUNDUP
NATIONAL WEATHER SERVICE NEW YORK NY
200 AM EDT SUN APR 19 2015

NOTE: "FAIR" INDICATES FEW OR NO CLOUDS BELOW 12,000 FEET WITH NO
SIGNIFICANT WEATHER AND/OR OBSTRUCTIONS TO VISIBILITY.

NYZ071-072-176-178-NJZ106-104-190700-
NEW YORK CITY METRO AREA


CITY           SKY/WX    TMP DP  RH WIND       PRES   REMARKS
CENTRAL PARK   FAIR      61  27  27 VRB5      30.12R
LAGUARDIA APRT FAIR      59  27  29 NE14G20   30.09R
KENNEDY INTL   MOCLDY    59  27  29 NE12      30.09R
NEWARK/LIBERTY FAIR      58  24  27 N8        30.09R
BRNX BOT. GARD   N/A     59  27  29 W15       30.11R
TETERBORO      FAIR      60  24  25 NE9       30.08R
$$

NYZ177-179-078>081-190700-
LONG ISLAND NEW YORK

CITY           SKY/WX    TMP DP  RH WIND       PRES   REMARKS
FARMINGDALE    FAIR      57  26  30 NE10      30.09R
ISLIP          FAIR      57  26  30 N12       30.07R
SHIRLEY        FAIR      52  31  44 CALM      30.10R
WESTHAMPTON    FAIR      45  35  68 E3        30.11R
MONTAUK POINT    N/A     49  40  71 NE7       30.11R
$$

NYZ052-065-067-190700-
HUDSON VALLEY

CITY           SKY/WX    TMP DP  RH WIND       PRES   REMARKS
WHITE PLAINS   FAIR      56  18  22 N12       30.09R
NEWBURGH       CLEAR     52  23  32 NE12      30.13R
MONTGOMERY     FAIR      50  26  39 NE8       30.11S
POUGHKEEPSIE   FAIR      53  22  29 N7        30.12S
ALBANY         FAIR      46  33  60 N10       30.16R
$$

NJZ001-105-106-008-010-013-015-019>022-104-190700-
NEW JERSEY

CITY           SKY/WX    TMP DP  RH WIND       PRES   REMARKS
NEWARK/LIBERTY FAIR      58  24  27 N8        30.09R
TETERBORO      FAIR      60  24  25 NE9       30.08R
CALDWELL       FAIR      57  22  25 NE3       30.10R
MORRISTOWN     FAIR      57  19  23 CALM      30.10R
SOMERVILLE     FAIR      60  22  23 N6        30.08R
SUSSEX         FAIR      54  24  31 N7        30.11F
ANDOVER          N/A     54  26  34 N5        30.09S
TRENTON        FAIR      60  23  24 N8        30.09R
MILLVILLE      FAIR      61  44  53 NE7       30.05R
ATLANTIC CITY  FAIR      57  44  62 NE9       30.06R
WRIGHTSTOWN    FAIR      57  27  31 NE8       30.05R
TOMS RIVER     FAIR      52  36  54 N3        30.08R
BELMAR         FAIR      61  28  29 N7        30.09R
$$

PAZ047>061-062-071-190700-
EASTERN PENNSYLVANIA

CITY           SKY/WX    TMP DP  RH WIND       PRES   REMARKS
PHILADELPHIA   MOCLDY    65  25  22 NE15      30.08R
ALLENTOWN      FAIR      54  28  36 NE3       30.11R
SCRANTON       FAIR      53  26  35 E5        30.11S
$$

CTZ002-004>006-009-010-012-RIZ004-006-007-MAZ004-011-015-190700-
SOUTHERN NEW ENGLAND
 IN CT

CITY           SKY/WX    TMP DP  RH WIND       PRES   REMARKS
BRADLEY INTL   FAIR      50  28  42 N8        30.12R
HARTFORD       FAIR      54  30  40 VRB7      30.12R
DANBURY        FAIR      53  19  26 N8        30.12R
WTRBRY/OXFORD  FAIR      50  21  32 N16       30.12S
BRIDGEPORT     FAIR      58  21  24 N9        30.10R
MERIDEN        FAIR      56  24  29 N12       30.11R
NEW HAVEN      FAIR      55  25  31 N12       30.10R
CHESTER        FAIR      55  32  41 N6        30.10R
GROTON         FAIR      48  39  71 E6        30.10R
WILLIMANTIC    FAIR      52  29  41 N10G16    30.11R

 IN RI

CITY           SKY/WX    TMP DP  RH WIND       PRES   REMARKS
PROVIDENCE     FAIR      45  37  73 N7        30.11R
BLOCK ISLAND   FAIR      45  37  76 NE7       30.10R
WESTERLY       FAIR      47  40  76 NE5       30.11R

 IN MA

CITY           SKY/WX    TMP DP  RH WIND       PRES   REMARKS
BOSTON         FAIR      47  34  60 NW15G22   30.11R
WORCESTER      FAIR      46  31  55 N10       30.10R
WESTFIELD      FAIR      48  28  46 CALM      30.12R
PROVINCETOWN   FAIR      39  37  93 NW7       30.09R WCI  34
NANTUCKET      FAIR      43  39  86 N8        30.08R
$$

ANZ330-335-338-340-345-350-353-355-190700-
COASTAL MARINE OBSERVATIONS


STATION/POSITION TIME  SKY/WX   TEMP    WIND        PRES    VSBY  WAVE
                                AIR SEA DIR/SP/G                  HT/PER
                 (UTC)          (F)     (DEG/KT/KT) (MB)    (MI)  (FT/S)
NY HARB ENTRANCE 0550            53 48   40/  6/  6 1018.3          2/ 8
4S FIRE IS       0503               45                N/A           3/ 8
20S FIRE ISLAND  0450               44              1018.2          3/ 8
23SW MTP         NOT AVBL
HUDSON CANYON    NOT AVBL
EXECUTION ROCKS  NOT AVBL
WESTERN LI SOUND NOT AVBL
CENTRAL LI SOUND NOT AVBL
EASTERN LI SOUND 0500            46      50/  8/ 10   N/A
ROBBINS REEF     0500            63     350/  9/ 12 1017.5
$$


>>>>>>>>>>>>>>>>>>>>>>>>>>>> KEY <<<<<<<<<<<<<<<<<<<<<<<<<<<
>                                                          <
>     SKY/WX - SKY CONDITION/PRESENT WEATHER               <
>     TMP    - TEMPERATURE IN FAHRENHEIT                   <
>     DP     - DEWPOINT IN FAHRENHEIT                      <
>     RH     - RELATIVE HUMIDITY IN PERCENT                <
>     WIND   - DIRECTION AND SPEED IN MPH                  <
>     PRES   - MEAN SEA LEVEL PRESSURE IN INCHES OF HG     <
>     WCI    - WIND CHILL INDEX                            <
>     VSB    - VISIBILITY IN MILES                         <
>     HX     - HEAT INDEX                                  <
>     TC     - TEMPERATURE IN CELSIUS                      <
>     VRB    - VARIABLE WIND DIRECTION                     <
>                                                          <
>>>>>>>>>>>>>>>>>>>>>>>>>>>> KEY <<<<<<<<<<<<<<<<<<<<<<<<<<<





USA.gov is the U.S. government's official web portal to all federal, state and local government web resources and services.